Regional Weather Roundup
Issued by NWS Wakefield, VA

Home | Current Version | Previous Version | Graphics & Text | Print | Product List | Glossary On
Versions: 1 2 3 4 5 6 7 8 9 10 11 12 13 14 15 16 17 18 19 20 21 22 23 24 25 26 27 28 29 30 31 32 33 34 35 36 37 38 39 40 41 42 43 44 45 46 47 48 49 50
000
ASUS41 KAKQ 222210
RWRAKQ

REGIONAL WEATHER ROUNDUP
NATIONAL WEATHER SERVICE WAKEFIELD VA
600 PM EDT MON SEP 22 2014

Note: "fair" indicates few or no clouds below 12,000 feet with no
significant weather and/or obstructions to visibility. * = Denotes
station may not report precipitation (e.g., rain,snow,etc.),
thunder or fog.

VAZ042-051-052>054-056-222300-
NORTHERN VIRGINIA

CITY           SKY/WX    TMP DP  RH WIND       PRES   REMARKS
WASH NATIONAL  PTSUNNY   72  43  35 NW15      30.07R
DULLES         PTSUNNY   67  44  43 N16       30.07R
FORT BELVOIR   MOSUNNY   71  45  40 NW9       30.07R
QUANTICO       MOSUNNY   71  44  37 N9        30.08R
FREDERICKSBRG* MOSUNNY   72  47  40 NW10G17   30.07R
STAFFORD*      MOSUNNY   70  46  43 NW6       30.11R
WARRENTON      MOSUNNY   70  52  53 NW9       30.08R
CULPEPER*      MOSUNNY   70  43  37 N9        30.10R
MANASSAS*      MOSUNNY   70  45  40 NW9       30.08R
LEESBURG*      SUNNY     68  46  45 N12G17    30.09R
WINCHESTER     SUNNY     64  41  42 W15G21    30.10R
FRONT ROYAL*   PTCLDY    64  43  45 NW7       30.10R
LURAY*         PTCLDY    68  46  45 N6        30.11R
$$

VAZ048-049-060>072-079>083-222300-
CENTRAL AND SOUTH CENTRAL VIRGINIA...AND NORTH CENTRAL NORTH CAROLINA

CITY           SKY/WX    TMP DP  RH WIND       PRES   REMARKS
RICHMOND       PTSUNNY   76  44  32 N9        30.05R
CHESTERFIELD*  PTCLDY   N/A N/A N/A N7        30.06R
PETERSBURG*    MOSUNNY   75  44  32 N5        30.05S
HANOVER        SUNNY     74  49  41 N3        30.07R
TAPPAHANNOCK*  SUNNY     73  42  31 NW5       30.07R
CHARLOTTSVILLE MOSUNNY   70  46  42 N5        30.07R
ORANGE*        MOSUNNY   70  45  40 NW7       30.09R
LOUISA*        MOSUNNY   73  46  38 N5        30.06R
FARMVILLE*     MOSUNNY   77  46  33 N5        30.03R
CREWE*         PTCLDY    74  51  44 CALM      30.05R
FORT PICKETT*  PTCLDY    73  54  52 CALM      30.05S
LUNENBURG*     PTCLDY    75  54  49 CALM      30.05R
SOUTH HILL*    MOSUNNY   75  55  50 CALM      30.10R
LAWRENCEVILLE* PTCLDY    69  58  68 CALM      30.05R
ROANOKE RAPIDS PTCLDY    72  54  53 CALM      30.05R
RALEIGH        PTSUNNY   71  54  54 CALM      30.06S
$$

VAZ088>098-222300-
SOUTHEAST VIRGINIA

CITY           SKY/WX    TMP DP  RH WIND       PRES   REMARKS
NORFOLK        SUNNY     74  54  49 N10       30.04R
VIRGINIA BEACH MOSUNNY   74  53  48 N10       30.03R
NORFOLK NAVAL  MOSUNNY   74  55  51 NE12      30.05R
WEST POINT*    MOSUNNY   76  48  37 N3        30.07R
NEWPORT NEWS   SUNNY     78  53  41 N7        30.04R
LANGLEY AFB    SUNNY     75  53  46 N9        30.03R
FORT EUSTIS    MOSUNNY   75  48  38 NE3       30.03R
WILLIAMSBURG*  MOSUNNY   79  57  47 N5        30.06R
HR EXEC AP*    CLEAR     75  55  50 CALM      30.06R
FRANKLIN*      SUNNY     75  52  43 CALM      30.04R
WAKEFIELD      MOSUNNY   76  56  49 CALM      30.04R
$$

VAZ020-022-025-037-045-222300-
WEST CENTRAL AND SOUTHWEST VIRGINIA

CITY           SKY/WX    TMP DP  RH WIND       PRES   REMARKS
STAUNTON*      MOSUNNY   70  39  32 N7        30.11R
HOT SPRINGS VA PTSUNNY   53  29  39 NW15G21   30.17S
LYNCHBURG      MOSUNNY   70  50  49 N3        30.09R
DANVILLE       MOSUNNY   72  53  51 N3        30.07R
SOUTH BOSTON*  NOT AVBL
MARTINSVILLE   PTSUNNY   69  51  53 NW7       30.11R
ROANOKE        PTSUNNY   69  49  48 NW10      30.12R
BLACKSBURG     PTSUNNY   63  54  72 NW6       30.16R
DUBLIN*        PTSUNNY   64  48  57 NW8       30.16S
MARION*        SUNNY     63  48  58 W9        30.19R
HILLSVILLE*    PTSUNNY   60  48  64 NW9       30.15S
RICHLANDS*     PTCLDY    63  49  60 NW6       30.18S
WISE*          MOSUNNY   61  45  55 N7        30.21R
ABINGDON*      CLOUDY    66  49  53 N3        30.16S
$$

MDZ021>025-VAZ099-100-222300-
SOUTHERN MARYLAND AND THE DELMARVA PENINSULA

CITY           SKY/WX    TMP DP  RH WIND       PRES   REMARKS
PATUXENT RIVER MOSUNNY   72  44  36 N13       30.06R
BAY BRIDGE APT   N/A     70  43  37 W13       30.05R
LEONARDTOWN    SUNNY     70  45  40 NW6       30.08R
DOVER          MOSUNNY   69  49  49 NW12      30.02R
GEORGETOWN     CLOUDY    72  49  44 VRB6      30.04R
EASTON         PTSUNNY   72  48  43 NW9       30.09R
CAMBRIDGE      PTSUNNY   72  50  46 NW5       30.05R
SALISBURY      CLOUDY    72  51  47 NW6       30.04R
OCEAN CITY     SUNNY     71  49  45 NW8       30.04R
WALLOPS ISLAND SUNNY     72  52  49 NW8       30.05R
ACCOMACK*      MOSUNNY   70  52  52 N8        30.05R
$$

NCZ012>017-030>032-222300-
EASTERN NORTH CAROLINA

CITY           SKY/WX    TMP DP  RH WIND       PRES   REMARKS
ELIZABETH CITY SUNNY     73  57  57 E8        30.04R
AHOSKIE*       MOSUNNY   72  55  54 CALM      30.05R
EDENTON*       SUNNY     77  54  45 CALM      30.03R
CURRITUCK*     SUNNY     74  54  50 E6        30.05R
KILL DEVIL HLS SUNNY     73  56  55 NE5       30.03R
MANTEO         SUNNY     73  56  56 NE8       30.03S
CAPE HATTERAS  MOSUNNY   72  62  71 NE9       30.02S
TARBORO*       PTCLDY    77  54  45 N3        30.05R
GOLDSBORO      MOSUNNY   76  60  57 CALM      30.02R
WASHINGTON     SUNNY     76  56  50 N5        30.03R
GREENVILLE     MOSUNNY   77  54  44 N3        30.05R
NEW BERN       MOSUNNY   78  59  51 N3        30.03R
WILMINGTON     PTSUNNY   77  60  55 N5        30.03R
$$

VAZ048-222300-
ELSEWHERE

CITY           SKY/WX    TMP DP  RH WIND       PRES   REMARKS
HARRISBURG PA  MOSUNNY   64  40  41 NW15      30.08R
BALTIMORE      PTSUNNY   68  44  42 W15G23    30.06R
ANNAPOLIS      MOSUNNY   69  47  45 MISG      30.06R
ANDREWS AFB    MOSUNNY   69  45  42 NW13G22   30.07R
WILMINGTON DE  MOSUNNY   68  45  43 NW14      30.04R
PHILADELPHIA   PTSUNNY   69  46  43 NW14      30.03R
WILDWOOD NJ*   MOSUNNY   70  48  46 NW7       30.04R
ATLANTIC CITY  CLOUDY    67  50  54 NW13      30.01R
HENDERSON NC   MOSUNNY   72  51  47 NW3       30.06R
GREENSBORO     PTSUNNY   72  51  47 NE6       30.07R
ROCKY MOUNT    MOSUNNY   75  55  49 N6        30.04R
FAYETTEVILLE   PTSUNNY   75  57  53 N6        30.04R
CHARLOTTE      CLOUDY    72  54  53 NW6       30.07R
$$

VAZ100-222300-
MARINE

STATION/POSITION TIME  TEMP    WIND        PRES    WAVE   SWELL
                       AIR SEA DIR/SP/G            HT/PER HT/PER
                 (UTC) (F)     (DEG/KT/KT) (MB)    (FT/S) (FT/S)
44066 TX TWR #4  2200   69 71  300/ 14/ 16 1014.6R   6/10   5/10
CAPE MAY NJ      2200   70 75  310/  3/  9 1016.2R
LEWES DE         2200   70 72  330/ 13/ 16 1016.6R
15NM E FENWICK I 2100   70 72              1015.5R   3/ 9
OCEAN-CITY-INLET 2200   71 72  330/  7/  9 1016.5S
WACHAPREAGUE VA  2200   71 75  310/  2/  5 1017.4R
THOMAS POINT MD  2200   68 73  310/ 14/ 16 1018.9R
GOOSES REEF MD   2200   70     330/ 14/ 19 1018.0R
COVE POINT MD    2200   69     350/ 13/ 17 1017.6R
SOLOMONS ISLAND  2200      76                N/A
BISHOPS HEAD MD  2200   71 72  340/  9/ 12 1017.2S
PINEY POINT MD   2200          330/ 14/ 16   N/A
POTOMAC MD       2100   72     310/ 12/ 16 1017.0R
CAMBRIDGE MD     2200   70 73  340/ 10/ 13 1017.2R
LEWISETTA VA     2200   72 74  320/  9/ 12 1017.5R
RAPPAHANNOCK LGT 2200          340/ 16/ 19 1017.6R
STINGRAY PT      2200   72     350/ 12/ 14   N/A
YORK RVR RNG VA  2200   74      10/  9/ 10 1016.7R
YORKTOWN VA      2200   74 76  330/  9/ 11 1016.8R
JAMESTOWN VA     2200   73      20/  4/  6   N/A
DOMINION TERM VA 2200   74      70/  7/ 10 1017.0R
KIPTOPEKE VA     2200      79   20/  5/  7   N/A
CHES BAY BRIDGE  2200   72 75   10/ 10/ 11 1016.5S
CAPE HENRY VA    2200   73     360/  9/ 11 1015.7R
CHESAPEAKE LGHT  2100   71      30/  7/  8 1017.4R
WILLOUBY STN VA  2200   73      70/  7/  8 1015.9R
S CRANEY ISL VA  2200           40/  9/ 10 1016.7R
CAPE HENRY BUOY  2200      75                N/A     3/ 8
1ST LANDING BUOY 2200   74      10/ 10/ 12 1016.6R
CAPE CHARLES BUO 2200      75                N/A     3/ 8   2/ 8
OFFSHORE WE BUOY 2100      74                N/A     3/ 8   3/ 8
64NM E OF VA BCH 2200   71 76  350/ 12/ 14 1016.7R   4/ 8   3/ 8
DUCK PIER NC     2200   72 75   30/ 11/ 13 1016.3R
44100 DUCK FRF   2100      74                N/A     4/ 8
44056 DUCK FRF   2100                        N/A     3/ 8
OREGON INLET NC  2200   73 75   40/ 10/ 14 1016.6F
DIAMOND SHLS NC  2200   74     360/ 14/ 17 1016.2R   4/ 8   3/ 8
CAPE LOOKOUT NC  2100   77      10/  8/ 10 1016.0R
$$



USA.gov is the U.S. government's official web portal to all federal, state and local government web resources and services.